Regional Weather Roundup
Issued by NWS

Home | Current Version | Previous Version | Graphics & Text | Print | Product List | Glossary On
Versions: 1 2 3 4 5 6 7 8 9 10 11 12 13 14 15 16 17 18 19 20 21 22 23 24 25 26 27 28 29 30 31 32 33 34 35 36 37 38 39 40 41 42 43 44 45 46 47 48 49 50
000
ASUS45 KBOI 261610
RWRID
WEATHER ROUNDUP FOR IDAHO
NATIONAL WEATHER SERVICE BOISE ID
900 AM MST MON JAN 26 2015

NOTE: "FAIR" INDICATES FEW OR NO CLOUDS BELOW 12000 FEET
WITH NO SIGNIFICANT WEATHER AND/OR OBSTRUCTIONS TO VISIBILITY

IDZ012-014-261700-
SOUTHWEST IDAHO


CITY           SKY/WX    TMP DP  RH WIND       PRES   REMARKS
BOISE          CLEAR     32  29  88 CALM      30.33F
CALDWELL       CLEAR     27  21  80 N7        30.35F WCI  19
MOUNTAIN HOME  CLEAR     33  31  92 SE13      30.33S WCI  23
$$

IDZ016-017-261700-
SOUTHCENTRAL IDAHO


CITY           SKY/WX    TMP DP  RH WIND       PRES   REMARKS
BURLEY         FOG       28  26  92 E13       30.35S VSB 1   WCI  17
JEROME         CLEAR     30  27  88 E14       30.33F WCI  19
TWIN FALLS     FOG       31  28  89 E14       30.33S VSB 1/4 WCI  21
$$

IDZ019>023-261700-
SOUTHEAST IDAHO


CITY           SKY/WX    TMP DP  RH WIND       PRES   REMARKS
IDAHO FALLS    PTCLDY    22  19  89 N5        30.42S WCI  16
POCATELLO      FOG       28  28 100 NE7       30.41F VSB 1/4 WCI  21
REXBURG        MOCLDY    21  19  92 E5        30.42F WCI  15
$$

IDZ006-010-011-018-031-032-261700-
CENTRAL IDAHO MOUNTAINS


CITY           SKY/WX    TMP DP  RH WIND       PRES   REMARKS
MCCALL         HAZE      25  20  81 CALM      30.27F VSB 3/4
HAILEY         CLEAR     34  27  75 W12G21    30.36F WCI  25
STANLEY          N/A     14   9  80 CALM      30.42S
SALMON         CLOUDY    23  21  93 CALM      30.39F VSB<1/4
CHALLIS        CLEAR     25  24  96 CALM      30.38S
$$

IDZ002-004-006-007-026-261700-
NORTHERN IDAHO


CITY           SKY/WX    TMP DP  RH WIND       PRES   REMARKS
LEWISTON       PTCLDY    47  37  68 E17       30.09S
LOWELL           N/A     35  33  92 N5        30.24F WCI  31
COEUR D`ALENE  CLOUDY    37  36  93 NE12      30.08F VSB 1/4 WCI  30
MULLAN PASS    MOCLDY    43  27  53 S8        30.14F
$$


USA.gov is the U.S. government's official web portal to all federal, state and local government web resources and services.